GFSNE_prec_radar_135.txt.gz
Reflectivity
29 26 1 27 -16 25 -19 -20 2 6 -20 -20 -20 -20 -20 -20 -20 4 -20 -3 -4 -20 -20 -20 -20 -20 -20 -20 -10 2 4 -15 -18 -19 -20 -20 -20 -20
29 26 9 15 22 19 13 10 10 2 -6 -20 -20 -4 7 -20 -20 -20 4 31 -12 -20 -20 -20 -20 -20 -20 -20 -20 -1 -9 -4 9 -4 -12 -16 -4 -20
30 27 -2 -4 21 3 9 13 15 9 -11 -20 -20 -20 -20 -20 -20 -20 -20 23 8 20 -20 -20 -20 -12 -18 -20 -20 -20 -14 -0 19 23 28 26 6 -6
29 30 29 26 -6 18 13 14 15 13 3 -18 -20 -3 12 -19 -20 -16 -9 24 27 20 8 6 24 -20 -19 3 -19 19 15 -20 0 14 24 30 19 14
30 24 5 17 9 24 21 20 20 15 9 31 28 29 31 5 -19 -20 -20 -14 -20 -17 9 3 23 -12 -13 3 -11 -11 -20 -15 -20 -12 13 25 23 24
40 43 20 28 19 15 10 17 21 21 23 22 23 37 18 28 20 -13 -18 -20 -20 -20 -20 -6 21 14 18 15 -20 -6 -20 -20 -20 -20 4 24 15 27
39 34 36 33 38 6 15 28 41 30 32 19 39 25 2 12 23 -6 -9 -5 -11 -20 -20 -20 -6 19 16 13 11 4 -20 -19 -20 -18 -17 -16 7 27
39 40 38 45 41 42 28 37 39 45 14 9 3 28 -1 3 9 8 1 -15 -18 -4 -1 -10 -20 12 2 16 -3 -14 -20 -19 2 -6 5 6 18 14
36 39 39 41 43 39 34 26 33 33 31 26 34 30 27 5 -5 -4 9 -20 -20 -20 -4 -11 16 -5 -0 -4 4 11 10 -2 6 -19 13 17 7 -3
31 31 27 25 30 35 39 39 31 35 35 37 30 27 30 -18 -17 -20 -20 -20 -20 -20 24 13 18 4 -16 -17 2 -20 -20 -20 -4 -0 5 24 10 -0
8 12 11 12 12 13 18 12 3 1 14 17 4 -20 -20 -17 -20 -20 -20 -20 -20 -19 -20 -20 -18 -9 2 6 -8 9 -20 -20 -20 -8 2 -18 16 -0
3 4 5 4 9 11 11 12 8 8 7 2 -4 -20 -20 -18 7 -13 -20 -20 -20 -20 -20 -20 -17 -1 -18 -17 -11 -20 -13 15 1 -11 -4 13 17 3
-19 -7 -2 -1 -3 5 4 7 7 4 5 0 -18 -20 -20 -20 -20 -20 -20 -20 -20 -20 -20 -20 -20 -20 -20 -20 -20 -20 -20 -4 -6 6 8 -4 9 2
-20 -20 -20 -20 -17 -17 -20 -20 -20 -20 -20 -20 -8 -5 -17 -20 -20 -20 -20 -20 -20 -20 -20 -20 -20 -20 -20 -20 -20 -20 -20 -20 -20 -20 -20 9 21 8
-20 -20 -20 -20 -20 -20 -20 -20 -20 -20 -20 -20 -20 -20 -20 -20 -20 -20 -20 -20 -20 -20 -20 -20 -20 -20 -20 -20 -20 -20 3 -9 -4 2 -2 -10 2 4
-20 -20 -20 -20 -20 -20 -20 -20 -20 -20 -20 -20 -20 -20 -20 -20 -20 -20 -20 -20 -20 -20 -20 -20 -20 -20 -20 -20 -17 -20 -20 -20 -20 -14 -13 -18 -16 3
-20 -20 -20 -20 -20 -20 -20 -20 -20 -20 -20 -20 -20 -20 -20 -20 -20 -20 -20 -20 -20 -20 -20 -20 -20 -20 -20 -20 -20 -20 -20 -20 -20 -18 -9 -15 -20 -11
-20 -20 -20 -20 -20 -20 -20 -20 -20 -20 -20 -20 -20 -20 -20 -20 -20 -20 -20 -20 -20 -20 -20 -20 -20 -20 -20 -20 -13 -20 -20 -20 -20 -20 -20 -20 -20 -13
-20 -20 -20 -20 -20 -20 -20 -20 -20 -20 -20 -20 -20 -20 -20 -20 -20 -20 -20 -20 -20 -20 -20 -20 -20 -20 -20 -20 -20 -17 -17 -20 -20 -20 -20 -17 -19 -14
-20 -20 -20 -20 -20 -20 -20 -20 -20 -20 -20 -20 -20 -20 -20 -20 -20 -20 -20 -20 -20 -20 -20 -20 -20 -20 -16 -20 -20 -19 3 -16 -19 -20 -15 -16 -11 -1
-20 -20 -20 -20 -20 -20 -20 -20 -20 -20 -20 -20 -20 -20 -20 -20 -20 -20 -20 -20 -20 -20 -20 -20 -20 -20 -18 0 2 -4 -6 9 1 -16 -18 -20 -20 -11
-20 -20 -20 -20 -20 -20 -20 -20 -20 -20 -20 -20 -20 -20 -20 -20 -20 -20 -20 -20 -20 -20 -20 -20 -20 -20 -18 -18 -16 -4 0 2 5 5 -3 -17 -19 -19
-20 -20 -20 -20 -20 -20 -20 -20 -20 -20 -20 -20 -20 -20 -20 -20 -20 -20 -20 -20 -20 -20 -20 -20 -20 -20 -20 -20 -19 -17 -17 -1 4 7 3 5 3 -8

GFSNE_prec_radar_138.txt.gz
Reflectivity
44 30 30 30 30 -11 -20 -20 -20 -20 -20 -20 -20 -20 -20 -20 -16 -20 -20 -4 10 9 7 1 -20 -20 -20 -20 9 -8 -2 7 11 9 5 -20 -20 -20
31 35 26 32 32 28 -20 -20 -20 -20 -11 -20 -20 -20 -20 -20 -16 -20 -20 3 9 8 8 9 7 -15 -20 -20 -20 1 16 -14 7 16 -4 -4 6 -20
35 34 34 35 29 26 2 2 25 -4 5 -20 -20 -20 -20 -20 -20 -20 -20 -20 -15 9 6 7 9 6 5 -20 -20 -20 -20 -20 -20 -19 -2 23 22 0
-6 9 34 29 29 30 29 31 4 0 12 -20 -20 -20 -20 -20 -11 -20 -20 -20 -20 8 1 -1 0 6 -14 -7 -14 -20 -20 -20 -20 -20 -20 -20 -8 25
-4 12 34 38 33 32 31 32 11 -2 7 -7 -2 -20 -20 -20 -13 -4 -20 -20 -20 -20 8 7 15 2 3 -3 13 5 -17 -20 -17 12 12 14 11 15
0 15 18 29 41 34 32 30 16 -10 9 5 -4 -9 3 22 -1 5 -12 -16 -5 -20 -2 6 -8 -20 -2 3 5 13 3 -4 2 6 5 10 6 1
19 19 22 22 8 24 43 41 33 11 10 21 23 21 20 29 30 -15 -5 4 -10 -18 -20 -20 -20 -20 -13 6 10 7 16 10 20 14 -12 -20 -16 -8
15 10 16 17 31 39 39 33 24 37 39 20 22 27 36 37 27 29 34 -7 30 22 -20 -20 -20 -20 -20 -20 5 -18 17 11 24 12 -11 -20 -20 4
19 11 4 16 28 32 40 32 39 42 32 39 26 33 33 39 38 43 12 31 26 16 5 -18 -20 -20 -2 3 17 22 32 24 11 7 9 4 7 9
-3 2 13 20 26 30 32 33 34 35 37 37 35 30 36 34 38 29 26 18 21 10 -19 -20 -20 -20 -20 -14 25 28 16 16 10 7 -2 -19 -0 5
10 14 15 16 16 18 17 22 20 23 20 24 27 30 22 17 21 16 11 31 11 -19 -20 -20 -20 -20 -20 -20 15 27 22 14 10 3 15 -7 -20 -13
-12 1 9 14 16 16 15 13 11 9 11 15 14 11 14 6 5 6 2 -2 -20 -20 -20 -20 -20 -20 -20 -20 -20 -20 -20 -20 2 -3 -1 13 2 -19
-6 -2 -3 -10 -1 6 10 11 13 11 11 9 4 12 13 6 12 9 -2 -16 -17 -20 -20 -20 -20 -20 -20 -20 -20 -20 -20 -20 -20 -20 -16 -8 5 -2
-11 -8 -7 -20 -11 -3 -2 -5 -13 0 4 7 9 8 2 -6 -19 -16 -15 -13 -14 -16 -20 -20 -20 -14 -20 -20 -20 -20 -20 -20 -20 -20 -20 -20 -20 -12
-20 -20 -20 -20 -20 -20 -20 -20 -15 -20 -20 -20 -20 -20 -16 -3 -3 -3 -14 -20 -20 -20 -20 -20 -20 -20 -20 -16 -20 -20 -20 -20 -20 -20 -20 -20 -20 -20
-20 -20 -20 -20 -20 -20 -20 -20 -20 -20 -20 -20 -20 -20 -20 -20 -20 -20 -20 -20 -20 -20 -20 -20 -20 -20 -20 -20 -19 -20 -20 -20 -20 -20 -20 -20 -20 -20
-20 -20 -20 -20 -20 -20 -20 -20 -20 -20 -20 -20 -20 -20 -20 -20 -20 -20 -20 -20 -20 -20 -20 -20 -20 -20 -20 -20 -20 -20 -20 -20 -20 -20 -20 -20 -20 -20
-20 -20 -20 -20 -20 -20 -20 -20 -20 -20 -20 -20 -20 -20 -20 -20 -20 -20 -20 -20 -20 -20 -20 -20 -20 -20 -20 -20 -20 -20 -20 -20 -20 -20 -20 -20 -20 -20
-20 -20 -20 -20 -20 -20 -20 -20 -20 -20 -20 -20 -20 -20 -20 -20 -20 -20 -20 -20 -20 -20 -20 -20 -20 -20 -20 -20 -20 -20 -20 -20 -19 -17 -17 -20 -20 -20
-20 -20 -20 -20 -20 -20 -20 -20 -20 -20 -20 -20 -20 -20 -20 -20 -20 -20 -20 -20 -20 -20 -20 -20 -20 -20 -20 -20 -20 -20 -17 -16 -17 -16 -15 -14 -11 -16
-20 -20 -20 -20 -20 -20 -20 -20 -20 -20 -20 -20 -20 -20 -20 -20 -20 -20 -20 -20 -20 -20 -20 -20 -20 -20 -19 -7 -19 -20 -20 -13 -8 -15 -12 -10 -15 -15
-20 -20 -20 -20 -20 -20 -20 -20 -20 -20 -20 -20 -20 -20 -20 -20 -20 -20 -20 -20 -20 -20 -20 -20 -20 -20 -16 -18 -20 -17 -20 -19 -16 -8 -2 -3 -7 -13
-20 -20 -20 -20 -20 -20 -20 -20 -20 -20 -20 -20 -20 -20 -20 -20 -20 -20 -20 -20 -20 -20 -20 -20 -20 -20 -20 -20 -20 -19 -8 -15 -16 -17 -6 8 6 0

GFSNE_prec_radar_141.txt.gz
Reflectivity
-12 8 22 39 33 28 23 24 18 2 -20 -20 -20 -20 -20 -20 -20 -20 -20 -20 -1 -5 5 -4 -19 -20 -20 -20 -20 -4 6 -20 -20 -20 -3 -19 -6 19
-15 5 14 11 36 37 31 26 24 16 -20 -9 -20 -20 -20 -20 -20 -20 -20 -11 -6 5 3 8 3 -8 -20 -20 -20 -20 -20 -20 -20 -20 -20 -20 -14 -6
-10 5 -0 8 13 42 41 32 29 26 15 -20 2 -20 -20 -20 -20 -20 -20 -9 -14 9 8 9 9 9 8 7 -20 -20 -20 -20 -20 -20 -20 -20 -17 -20
-20 -20 -3 -2 19 26 34 35 31 28 28 -20 25 20 -20 -20 -20 -20 -20 -20 -20 -10 10 6 8 9 19 18 22 14 -20 -20 -20 -20 -20 -20 -20 -20
-10 -20 -10 15 2 10 36 41 35 25 17 28 24 17 24 -11 -20 -20 -12 -20 -20 -14 4 9 9 10 9 5 -4 8 2 15 -13 -18 -20 -20 -14 13
27 7 -4 4 -0 28 36 18 37 38 32 31 30 28 24 10 -20 -20 -7 -20 0 -20 6 3 -6 -9 -3 10 4 -3 3 3 16 15 -7 -8 -20 -20
28 29 21 24 19 -4 6 28 38 39 39 34 33 40 29 12 10 -12 18 8 -4 -20 -12 -8 9 15 11 10 16 4 10 10 -6 -5 2 7 2 6
34 26 27 25 28 29 24 29 21 33 17 36 34 34 34 19 19 -4 -0 -13 4 14 1 -19 15 26 15 3 18 -4 10 5 10 19 18 22 22 24
33 33 27 27 27 21 26 25 21 24 23 25 32 35 41 22 33 31 29 19 32 36 25 5 29 28 24 -2 17 -7 -0 -18 -20 -8 22 22 9 31
26 29 23 18 4 8 1 13 19 20 28 29 31 31 29 26 27 37 36 19 22 30 25 29 35 35 35 20 8 -16 -19 -3 5 12 13 12 26 29
16 13 15 11 12 4 -7 -1 1 14 13 13 18 24 23 20 30 34 31 33 37 34 33 37 35 31 32 18 23 2 -15 -18 7 14 20 22 12 -7
11 9 1 3 -10 -4 -2 5 4 5 9 14 14 11 14 12 13 17 8 9 17 18 19 5 11 23 20 10 -1 -19 -20 -20 -20 -16 -1 3 -13 -20
-8 -0 0 1 -3 -2 -3 -8 3 -1 -5 1 8 9 4 1 3 9 8 10 13 13 3 6 11 1 2 -2 -4 1 1 -13 -10 -10 -9 -16 -20 -20
-20 -20 -20 -20 -20 -18 -9 -8 -2 -3 3 -1 -3 -1 -0 4 -1 -7 -4 -1 6 2 -14 -3 -3 1 0 -9 -6 -14 -20 -5 -13 -16 -19 -4 -20 -20
-20 -20 -20 -20 -20 -20 -20 -8 -20 -19 -20 -20 -16 -15 -4 -17 -18 -19 -20 -20 -20 -9 -1 -8 -1 -1 -4 1 -0 -13 -5 -18 -15 -16 -19 -20 -20 -8
-20 -20 -20 -20 -20 -20 -20 -20 -20 -20 -20 -20 -20 -20 -20 -20 -20 -2 -20 -20 -20 -20 -20 -20 -20 -2 2 -1 2 -1 -5 -4 -19 -9 -13 -20 -20 -20
-20 -20 -20 -20 -20 -20 -20 -20 -20 -20 -20 -20 -20 -20 -20 -20 -20 -20 -20 -20 -20 -20 -20 -20 -20 -6 -9 -2 1 1 0 -2 -7 -5 1 -19 -20 -8
-20 -20 -20 -20 -20 -20 -20 -20 -20 -20 -20 -20 -20 -20 -20 -20 -20 -20 -11 -16 -20 -20 -20 -20 -20 -20 -20 -19 -10 1 -0 -1 -2 -9 -2 -7 -3 -15
-20 -20 -20 -20 -20 -20 -20 -20 -20 -20 -20 -20 -20 -20 -20 -20 -20 -20 -20 -7 -20 -20 -20 -20 -20 -12 -6 -6 -8 -20 -4 -1 1 0 5 4 1 -1
-20 -20 -20 -20 -20 -20 -20 -20 -20 -20 -20 -20 -20 -20 -20 -20 -3 -4 -8 1 -0 -20 -20 -20 -20 -2 3 5 5 1 -20 -4 7 7 2 3 -4 -20
-20 -20 -20 -20 -20 -20 -20 -20 -20 -20 -20 -20 -20 -20 -20 -4 -11 -2 1 -2 -18 -7 -20 -20 -20 -20 -12 7 8 4 4 -20 -5 -0 8 10 8 2
1 2 4 2 -20 -20 -20 -1 -18 -17 -20 -20 -20 -20 -11 -4 -2 -0 1 2 1 0 -19 -20 -20 -20 2 3 3 5 4 1 -13 -20 -17 -12 14 13
-6 -16 -1 3 5 1 -20 -20 -20 -9 -20 -20 -20 -20 -20 -1 1 2 2 1 2 1 0 -20 -20 -20 1 5 1 4 -1 -0 -1 -1 -19 -16 -14 -6

GFSNE_prec_radar_144.txt.gz
Reflectivity
21 -7 24 18 1 9 7 28 26 28 27 11 5 -19 -18 15 -20 -20 -20 -20 -20 3 -6 -20 -20 -20 -20 -20 -20 -20 -20 -20 -20 -20 -20 -20 -20 -20
24 14 3 19 12 14 13 30 37 29 30 20 3 -20 -20 -20 10 -20 -20 -12 -11 -17 -13 -5 -12 -20 -20 -20 -20 -20 -20 -20 -20 -20 -20 -20 -20 -20
23 15 5 20 23 21 21 11 6 28 35 9 23 -17 -20 27 -10 -20 -20 -20 -12 14 0 -13 -8 -2 2 -20 -20 -20 -20 -20 -20 -20 -20 -20 -20 -20
-7 -11 2 10 13 -20 -20 5 29 41 42 29 28 12 -5 -18 4 -4 -20 -20 -20 -13 24 24 22 15 2 8 3 -18 11 -20 13 -20 -20 -20 -20 -20
-6 -1 6 6 20 -14 -17 3 -5 15 33 39 36 30 13 25 27 5 3 -16 -19 -2 16 12 11 9 8 4 10 8 17 18 -16 19 14 -20 -20 3
-3 2 -3 1 12 19 18 -9 -16 12 20 15 36 38 29 22 9 28 26 -18 -16 -20 -20 5 -20 -9 9 10 10 -0 5 6 -13 -4 -18 9 0 -19
4 -14 8 17 28 30 18 31 19 7 35 16 33 38 39 26 22 26 13 17 21 16 16 2 16 8 7 18 15 2 6 6 4 6 9 11 12 18
16 14 3 4 21 35 37 25 22 26 30 29 39 37 34 40 32 29 31 30 22 10 14 11 12 12 -7 15 26 21 -1 -6 18 21 17 -15 3 14
23 24 27 19 19 25 24 26 31 30 24 26 21 23 28 31 31 35 29 26 27 20 5 12 20 17 -6 -6 22 25 3 -17 -8 -15 -20 6 7 5
18 21 21 21 25 29 23 25 26 24 27 21 22 27 30 31 22 16 28 34 37 24 17 -11 -2 12 0 9 25 32 28 19 13 5 -10 -8 -0 6
14 13 11 13 14 22 24 18 -2 6 4 2 12 13 14 19 25 28 25 37 38 29 28 25 1 -0 26 30 29 35 34 25 32 25 21 15 -11 -7
13 14 12 15 14 12 4 8 15 12 6 -15 -3 -6 1 -4 4 12 10 8 19 20 22 22 23 35 34 38 28 30 22 13 23 32 22 23 13 -20
-20 -8 -2 12 9 11 10 11 8 3 -2 -10 -13 -13 -5 -5 -6 3 4 4 7 12 13 15 13 -2 7 2 16 17 15 8 13 9 19 8 -10 -20
-20 -20 -20 -17 -4 6 9 9 4 1 1 -4 -18 -18 -6 -5 2 4 2 -2 4 7 4 5 5 5 2 4 8 3 -3 -3 -3 6 8 6 2 -4
-20 -20 -20 -20 -20 -20 -20 -18 2 -0 -10 -12 -12 -8 -3 -17 -12 -11 -17 -20 8 4 5 -14 -1 2 5 5 5 4 5 5 -3 -18 -20 -20 -20 -20
-20 -20 -20 -20 -20 -20 -20 -20 -20 -20 -20 -20 -20 -20 -16 -20 -15 -12 -20 -20 -20 -20 10 -20 -19 1 3 4 9 3 4 5 -1 1 0 -8 -10 -18
-20 -20 -20 -20 -20 -20 -20 -20 -20 -20 -20 -20 -20 -20 -20 -20 -20 -20 -20 -20 -20 -20 -20 -20 -20 -20 -19 -19 5 3 -16 -13 6 7 2 0 3 -17
-20 -18 -20 -20 -20 -20 -20 -20 -20 -20 -20 -20 -20 -20 -20 -20 -20 -20 -20 -20 -20 -20 -20 -20 -20 -20 -20 -18 -17 1 -0 -0 -2 5 5 7 -0 9
-20 -1 -19 -4 -20 -20 -20 -20 -20 -20 -20 -20 -20 -20 -20 -20 -20 -20 -20 -20 -20 -20 -20 -20 -20 -20 -20 -5 -19 -18 6 0 -5 5 10 8 8 11
-20 -6 3 2 -20 -20 -20 -20 -15 -15 -18 -20 -20 -20 -20 -20 -20 -20 -20 -17 -20 -20 -20 -20 -20 -20 -13 0 -1 -2 -20 -4 2 2 7 11 -7 -20
-20 -20 -20 1 -8 -8 -17 -5 -7 -1 -11 -10 -11 -15 -17 -20 -20 -20 -20 -14 -14 -20 -20 -20 -20 -20 -20 -13 2 9 14 -2 -20 -2 4 8 10 10
-20 -20 -20 -20 -20 -12 -6 -16 -2 -14 -15 -20 -16 -14 -7 -19 -7 -18 -20 -20 -20 -20 -20 -20 -20 -20 -20 -3 3 5 -13 14 -11 -20 -17 -18 8 8
-4 -20 -20 -19 -20 -20 -20 3 6 -5 -19 1 -0 -20 -19 -20 -20 1 -15 -20 -20 -20 -20 -20 -20 -20 -20 -10 4 6 6 9 9 9 12 -20 -10 -19